Weather History for LFMU - June, 2013

Change the Weather History Date:

Wednesday, June 12, 2013

  Actual Average (LFMT) Record (LFMT)
Temperature  
Mean Temperature 73 °F -  
Max Temperature 87 °F 77 °F 92 °F (2014)
Min Temperature 59 °F 60 °F 55 °F (1998)
Cooling Degree Days 8    
Growing Degree Days 23 (Base 50)    
Moisture  
Dew Point 57 °F    
Average Humidity 60    
Maximum Humidity 88    
Minimum Humidity 33    
Precipitation  
Precipitation 0.00 in - - ()
Sea Level Pressure  
Sea Level Pressure 30.08 in    
Wind  
Wind Speed 6 mph ()    
Max Wind Speed 13 mph    
Max Gust Speed -    
Visibility 6.2 miles    
Events      
Averages and records for this station are not official NWS values.
T = Trace of Precipitation, MM = Missing Value Source: Averaged Metar Reports

Daily Weather History Graph

Daily Weather History Graph

Search for Another Location

Airport or City:

Trip Planner

Search our weather history database for the weather conditions in past years. The results will help you decide how hot, cold, wet, or windy it might be!

Date:

Astronomy

Jun. 12, 2013 Rise Set
Actual Time 6:05 AM CEST 9:27 PM CEST
Civil Twilight 5:30 AM CEST 10:02 PM CEST
Nautical Twilight 4:44 AM CEST 10:49 PM CEST
Astronomical Twilight 3:46 AM CEST 11:46 PM CEST
Moon 9:35 AM CEST (6/12) 11:49 PM CEST (6/12)
Length of Visible Light 16h 32m
Length of Day
15h 21m
Waxing Crescent, 12% of the Moon is Illuminated
Jun 12
Waxing Crescent
Jun 16
First Quarter
Jun 23
Full
Jun 30
Last Quarter
Jul 8
New

Hourly Weather History & Observations

Time (CEST) Temp. Heat Index Dew Point Humidity Pressure Visibility Wind Dir Wind Speed Gust Speed Precip Events Conditions
12:00 AM 69.8 °F - 55.4 °F 60% 30.09 in 6.2 mi SSW 5.8 mph - N/A   Unknown
12:30 AM 68.0 °F - 55.4 °F 64% 30.09 in 6.2 mi West 4.6 mph - N/A   Unknown
1:00 AM 69.8 °F - 55.4 °F 60% 30.09 in 6.2 mi WNW 10.4 mph - N/A   Unknown
1:30 AM 66.2 °F - 57.2 °F 73% 30.09 in 6.2 mi West 5.8 mph - N/A   Unknown
2:00 AM 66.2 °F - 57.2 °F 73% 30.09 in 6.2 mi WNW 9.2 mph - N/A   Unknown
2:30 AM 68.0 °F - 57.2 °F 68% 30.09 in 6.2 mi WNW 5.8 mph - N/A   Unknown
3:00 AM 64.4 °F - 55.4 °F 73% 30.09 in 6.2 mi West 6.9 mph - N/A   Unknown
3:30 AM 62.6 °F - 55.4 °F 77% 30.09 in 6.2 mi West 6.9 mph - N/A   Unknown
4:00 AM 62.6 °F - 55.4 °F 77% 30.09 in 6.2 mi Variable 3.5 mph - N/A   Unknown
4:30 AM 62.6 °F - 55.4 °F 77% 30.09 in 6.2 mi WSW 5.8 mph - N/A   Unknown
5:00 AM 60.8 °F - 55.4 °F 82% 30.09 in 6.2 mi West 1.2 mph - N/A   Unknown
5:30 AM 60.8 °F - 53.6 °F 77% 30.09 in 6.2 mi West 5.8 mph - N/A   Unknown
6:00 AM 59.0 °F - 55.4 °F 88% 30.09 in 6.2 mi West 8.1 mph - N/A   Unknown
6:30 AM 60.8 °F - 55.4 °F 82% 30.09 in 6.2 mi WSW 5.8 mph - N/A   Unknown
7:00 AM 62.6 °F - 57.2 °F 82% 30.12 in 6.2 mi West 4.6 mph - N/A   Unknown
7:30 AM 64.4 °F - 57.2 °F 77% 30.12 in 6.2 mi Variable 2.3 mph - N/A   Unknown
8:00 AM 68.0 °F - 57.2 °F 68% 30.12 in 6.2 mi West 4.6 mph - N/A   Unknown
8:30 AM 71.6 °F - 57.2 °F 60% 30.12 in 6.2 mi WNW 4.6 mph - N/A   Unknown
9:00 AM 71.6 °F - 55.4 °F 57% 30.12 in 6.2 mi NW 6.9 mph - N/A   Unknown
9:30 AM 73.4 °F - 57.2 °F 57% 30.12 in 6.2 mi WNW 6.9 mph - N/A   Unknown
10:00 AM 75.2 °F - 55.4 °F 50% 30.12 in 6.2 mi NW 10.4 mph - N/A   Unknown
10:30 AM 75.2 °F - 55.4 °F 50% 30.12 in 6.2 mi West 8.1 mph - N/A   Unknown
11:00 AM 77.0 °F - 53.6 °F 44% 30.09 in 6.2 mi WNW 12.7 mph - N/A   Unknown
11:30 AM 77.0 °F - 53.6 °F 44% 30.09 in 6.2 mi West 9.2 mph - N/A   Unknown
12:00 PM 78.8 °F - 53.6 °F 42% 30.09 in 6.2 mi West 9.2 mph - N/A   Unknown
12:30 PM 80.6 °F 80.5 °F 55.4 °F 42% 30.09 in 6.2 mi WNW 6.9 mph - N/A   Unknown
1:00 PM 80.6 °F 80.5 °F 55.4 °F 42% 30.09 in 6.2 mi WNW 6.9 mph - N/A   Unknown
1:30 PM 82.4 °F 81.7 °F 55.4 °F 39% 30.09 in 6.2 mi West 8.1 mph - N/A   Unknown
2:00 PM 84.2 °F 83.5 °F 57.2 °F 40% 30.06 in 6.2 mi West 8.1 mph - N/A   Unknown
2:30 PM 86.0 °F 84.9 °F 57.2 °F 37% 30.06 in 6.2 mi WSW 5.8 mph - N/A   Unknown
3:00 PM 86.0 °F 84.9 °F 57.2 °F 37% 30.06 in 6.2 mi West 10.4 mph - N/A   Unknown
3:30 PM 86.0 °F 84.9 °F 57.2 °F 37% 30.06 in 6.2 mi West 6.9 mph - N/A   Unknown
4:00 PM 87.8 °F 86.5 °F 57.2 °F 35% 30.04 in 6.2 mi Variable 4.6 mph - N/A   Unknown
4:30 PM 87.8 °F 86.1 °F 55.4 °F 33% 30.04 in 6.2 mi SSW 4.6 mph - N/A   Unknown
5:00 PM 84.2 °F 83.5 °F 57.2 °F 40% 30.04 in 6.2 mi SSE 8.1 mph - N/A   Unknown
5:30 PM 82.4 °F 82.9 °F 60.8 °F 48% 30.04 in 6.2 mi South 11.5 mph - N/A   Unknown
6:00 PM 77.0 °F - 62.6 °F 61% 30.04 in 6.2 mi South 11.5 mph - N/A   Unknown
6:30 PM 77.0 °F - 60.8 °F 57% 30.04 in 6.2 mi South 10.4 mph - N/A   Unknown
7:00 PM 77.0 °F - 60.8 °F 57% 30.04 in 6.2 mi SSW 10.4 mph - N/A   Unknown
7:30 PM 77.0 °F - 60.8 °F 57% 30.04 in 6.2 mi South 9.2 mph - N/A   Unknown
8:00 PM 75.2 °F - 60.8 °F 61% 30.04 in 6.2 mi South 6.9 mph - N/A   Unknown
8:30 PM 73.4 °F - 60.8 °F 65% 30.04 in 6.2 mi South 3.5 mph - N/A   Unknown
9:00 PM 73.4 °F - 60.8 °F 65% 30.04 in 6.2 mi Variable 1.2 mph - N/A   Unknown
9:30 PM 71.6 °F - 60.8 °F 69% 30.04 in 6.2 mi South 3.5 mph - N/A   Unknown
10:00 PM 69.8 °F - 60.8 °F 73% 30.04 in 6.2 mi WSW 1.2 mph - N/A   Unknown
10:30 PM 68.0 °F - 60.8 °F 78% 30.06 in 6.2 mi Variable 2.3 mph - N/A   Unknown
11:00 PM 68.0 °F - 60.8 °F 78% 30.06 in 6.2 mi WNW 4.6 mph - N/A   Unknown
11:30 PM 66.2 °F - 60.8 °F 83% 30.06 in 6.2 mi Variable 2.3 mph - N/A   Unknown